Weather History for Forrest, WE

Change the Weather History Date:

Sunday, December 2, 2012

  Actual Average Record
Temperature  
Mean Temperature 68 °F -  
Max Temperature 85 °F - - ()
Min Temperature 50 °F - - ()
Cooling Degree Days 2    
Growing Degree Days 18 (Base 50)    
Moisture  
Dew Point 47 °F    
Average Humidity 53    
Maximum Humidity 100    
Minimum Humidity 11    
Precipitation  
Precipitation 0.00 in - - ()
Sea Level Pressure  
Sea Level Pressure 30.14 in    
Wind  
Wind Speed 8 mph ()    
Max Wind Speed 23 mph    
Max Gust Speed 32 mph    
T = Trace of Precipitation, MM = Missing Value Source: Averaged Metar Reports

Daily Weather History Graph

Daily Weather History Graph

Search for Another Location

Airport:

Trip Planner

Search our weather history database for the weather conditions in past years. The results will help you decide how hot, cold, wet, or windy it might be!

Date:

Astronomy

Dec. 02, 2012 Rise Set
Actual Time 4:16 AM AWST 6:17 PM AWST
Civil Twilight 3:49 AM AWST 6:44 PM AWST
Nautical Twilight 3:16 AM AWST 7:17 PM AWST
Astronomical Twilight 2:41 AM AWST 7:53 PM AWST
Moon 9:00 PM AWST (12/2) 7:05 AM AWST (12/2)
Length of Visible Light 14h 55m
Length of Day
14h 00m
Waning Gibbous, 89% of the Moon is Illuminated
Dec 2
Waning Gibbous
Dec 6
Last Quarter
Dec 13
New
Dec 20
First Quarter
Dec 28
Full

Hourly Weather History & Observations

Time (AWST) Temp. Dew Point Humidity Pressure Visibility Wind Dir Wind Speed Gust Speed Precip Events Conditions
12:00 AM 55 °F 48 °F 70% 30.17 in - SE 5.8 mph - -  
12:00 AM 55.4 °F 48.2 °F 77% 30.18 in - SE 5.8 mph - N/A   Unknown
1:00 AM 53.6 °F 48.2 °F 82% 30.15 in - SSE 5.8 mph - N/A   Unknown
2:00 AM 54 °F 51 °F 85% 30.17 in - SSE 5.8 mph - -  
2:00 AM 53.6 °F 50.0 °F 88% 30.18 in - SSE 5.8 mph - N/A   Unknown
3:00 AM 52 °F 51 °F 95% 30.17 in - South 8.1 mph - -  
3:00 AM 51.8 °F 51.8 °F 100% 30.18 in - South 8.1 mph - N/A   Unknown
4:00 AM 51.8 °F 50.0 °F 94% 30.18 in - South 6.9 mph - N/A   Unknown
5:00 AM 53 °F 52 °F 97% 30.18 in - South 5.8 mph - -  
5:00 AM 53.6 °F 51.8 °F 94% 30.18 in - South 5.8 mph - N/A   Unknown
6:00 AM 61 °F 54 °F 72% 30.20 in - ESE 6.9 mph - -  
6:00 AM 60.8 °F 53.6 °F 77% 30.21 in - ESE 6.9 mph - N/A   Unknown
7:00 AM 64.4 °F 51.8 °F 64% 30.21 in - East 9.2 mph - N/A   Unknown
8:00 AM 68 °F 47 °F 37% 30.20 in - East 9.2 mph - -  
8:00 AM 68.0 °F 48.2 °F 49% 30.21 in - East 9.2 mph - N/A   Unknown
9:00 AM 71 °F 48 °F 33% 30.19 in - SSE 8.1 mph - -  
9:00 AM 71.6 °F 48.2 °F 43% 30.18 in - SSE 8.1 mph - N/A   Unknown
10:00 AM 73.4 °F 46.4 °F 38% 30.18 in - South 9.2 mph - N/A   Unknown
11:00 AM 76 °F 45 °F 22% 30.14 in - SSE 9.2 mph - -  
11:00 AM 75.2 °F 44.6 °F 34% 30.15 in - SSE 9.2 mph - N/A   Unknown
12:00 PM 80 °F 43 °F 17% 30.12 in - SSW 5.8 mph - -  
12:00 PM 80.6 °F 42.8 °F 26% 30.12 in - SSW 5.8 mph - N/A   Unknown
1:00 PM 82.4 °F 41.0 °F 23% 30.09 in - ESE 8.1 mph - N/A   Unknown
2:00 PM 85 °F 39 °F 11% 30.06 in - South 9.2 mph - -  
2:00 PM 84.2 °F 39.2 °F 20% 30.06 in - South 9.2 mph - N/A   Unknown
3:00 PM 83 °F 41 °F 13% 30.05 in - South 12.7 mph - -  
3:00 PM 84.2 °F 41.0 °F 22% 30.06 in - South 12.7 mph - N/A   Unknown
4:00 PM 80.6 °F 46.4 °F 30% 30.04 in - South 17.3 mph - N/A   Unknown
5:00 PM 76 °F 46 °F 24% 30.07 in - SSE 20.7 mph - -  
5:00 PM 75.2 °F 46.4 °F 36% 30.06 in - SSE 20.7 mph - N/A   Unknown
6:00 PM 70 °F 47 °F 32% 30.09 in - SSE 23.0 mph - -  
6:00 PM 69.8 °F 46.4 °F 43% 30.09 in - SSE 23.0 mph - N/A   Unknown
6:31 PM 66.2 °F 46.4 °F 49% 30.09 in - SSE 20.7 mph 32.2 mph N/A   Unknown
7:00 PM 64.4 °F 46.4 °F 52% 30.12 in - SSE 19.6 mph - N/A   Unknown
8:00 PM 62 °F 48 °F 49% 30.13 in - SE 15.0 mph - -  
8:00 PM 62.6 °F 48.2 °F 59% 30.15 in - SE 15.0 mph - N/A   Unknown
9:00 PM 60 °F 48 °F 55% 30.15 in - SE 16.1 mph - -  
9:00 PM 60.8 °F 48.2 °F 63% 30.15 in - SE 16.1 mph - N/A   Unknown
10:00 PM 59.0 °F 48.2 °F 67% 30.15 in - SE 12.7 mph - N/A   Unknown
11:00 PM 58 °F 48 °F 60% 30.15 in - SE 9.2 mph - -  
11:00 PM 59.0 °F 48.2 °F 67% 30.15 in - SE 9.2 mph - N/A   Unknown